Location: Condor
(52.3263°N, 114.5541°W)
Time: 01:30:36
(UTC+00:00)

SO-50 - Pass Details

Date: 06 December 2023
Orbit: 608 x 661 km, 64.6° (Epoch: 28 February)

Event Time Altitude Azimuth Distance (km) Brightness Sun altitude
Exits shadow 13:25:36 25° 330° (NNW) 1,300 ? -18.2°
Maximum altitude 13:25:56 26° 337° (NNW) 1,292 ? -18.1°
Drops below altitude 10° 13:29:48 10° 34° (NNE) 2,038 ? -17.5°
Sets 13:32:25 0° 47° (NE) 2,937 ? -17.2°
